Location: Marcé
(47.5801°N, 0.3280°W)
Time: 04:27:21
(UTC+02:00)

RAPIDEYE 2 - Visible Passes

Search period start: 01 July 2022 00:00
Search period end: 11 July 2022 00:00
Orbit: 568 x 586 km, 97.6° (Epoch: 30 June)

Date Brightness Start Highest point End Pass type
(mag) Time Alt. Az. Time Alt. Az. Time Alt. Az.
01 Jul ? 22:50:54 10° SSE 22:54:57 89° WSW 22:59:02 10° NNW visible
02 Jul ? 22:54:54 10° S 22:58:57 81° W 23:03:01 10° NNW visible
03 Jul ? 22:58:54 10° S 23:02:56 73° WSW 23:07:01 10° NNW visible
04 Jul ? 23:02:54 10° S 23:06:56 66° W 23:10:59 10° NNW visible
05 Jul ? 23:06:56 10° S 23:10:55 59° WSW 23:14:57 10° NNW visible
06 Jul ? 23:10:58 10° S 23:14:55 53° W 23:18:55 10° NNW visible
07 Jul ? 23:15:00 10° S 23:18:55 48° W 23:22:53 10° NNW visible
08 Jul ? 23:19:03 10° S 23:22:55 43° W 23:26:49 10° NNW visible
09 Jul ? 23:23:06 10° SSW 23:26:55 39° W 23:30:46 10° NNW visible
10 Jul ? 23:27:10 10° SSW 23:30:55 36° W 23:34:42 10° NNW visible
